Location: Kuppenheim
(48.8299°N, 8.2568°E)
Time: 14:56:11
(UTC+00:00)

Cosmos 1898 Rocket - Pass Details

Date: 24 October 2021
Orbit: 753 x 783 km, 74.0° (Epoch: 09 December)

Event Time Altitude Azimuth Distance (km) Brightness Sun altitude
Rises 17:06:46 0° 269° (W) 3,253 9.0 -8.3°
Reaches altitude 10° 17:10:59 10° 302° (WNW) 2,337 6.8 -9.0°
Maximum altitude 17:12:48 12° 322° (NW) 2,227 6.3 -9.3°
Drops below altitude 10° 17:14:38 10° 342° (NNW) 2,346 6.2 -9.6°
Sets 17:18:54 0° 15° (NNE) 3,283 6.6 -10.3°
